GOES 4 [-]

Last updated on July 6, 2021, 3:23 p.m. UTC

1 11964U 80074A   21186.60390321  .00000048  00000-0  00000+0 0  9993
2 11964  11.8315 318.8859 0034153  63.9140 331.3431  0.99230205109696
UTC
Height (km)
Latitude
Longitude
Inclination
Orbital Period
UTC large
Height (km)
Speed (km/s)
/
Latitude / Longitude
Inclination (degrees)
Orbital Period (minutes)
Azimuth
Elevation
Range (km)
Doppler Factor
iOS Compass Heading
iOS Angle